Location: Hysolar-Haus
(48.7436°N, 9.0965°E)
Time: 04:55:07
(UTC+00:00)

Explorer 7 - Pass Details

Date: 23 November 2019
Orbit: 485 x 680 km, 50.3° (Epoch: 12 December)

Event Time Altitude Azimuth Distance (km) Brightness Sun altitude
Exits shadow 04:33:12 16° 197° (SSW) 1,442 8.8 -21.0°
Drops below altitude 10° 04:34:37 10° 178° (S) 1,754 9.5 -20.8°
Sets 04:37:15 0° 159° (SSE) 2,605 10.7 -20.4°
